Location: Edinburgh
(55.9500°N, 3.1600°W)
Time: 07:32:41
(UTC+01:00)

UKube-1 - Visible Passes

Search period start: 22 July 2018 00:00
Search period end: 01 August 2018 00:00
Orbit: 614 x 620 km, 98.4° (Epoch: 21 July)

Date Brightness Start Highest point End Pass type
(mag) Time Alt. Az. Time Alt. Az. Time Alt. Az.
22 Jul ? 01:35:43 10° E 01:38:44 19° NE 01:41:44 10° N visible
22 Jul ? 03:09:52 10° SSE 03:14:12 86° WSW 03:18:35 10° NNW visible
23 Jul ? 01:51:30 10° ESE 01:54:57 24° ENE 01:58:24 10° N visible
23 Jul ? 03:26:20 10° S 03:30:38 63° WSW 03:34:58 10° NNW visible
24 Jul ? 02:07:25 10° ESE 02:11:12 30° ENE 02:14:59 10° N visible
24 Jul ? 03:42:54 10° S 03:47:05 46° W 03:51:16 10° NNW visible
25 Jul ? 02:23:27 10° SE 02:27:29 39° ENE 02:31:32 10° N visible
25 Jul ? 03:59:36 10° SSW 04:03:34 34° W 04:07:32 10° NNW visible
26 Jul ? 01:07:06 10° ENE 01:08:40 12° NE 01:10:16 10° NNE visible
26 Jul ? 02:39:35 10° SE 02:43:48 52° ENE 02:48:02 10° N visible
27 Jul ? 01:22:24 10° E 01:24:50 15° NE 01:27:16 10° NNE visible
27 Jul ? 02:55:50 10° SSE 03:00:09 71° ENE 03:04:29 10° NNW visible
28 Jul ? 01:38:00 10° E 01:41:01 19° NE 01:44:03 10° N visible
28 Jul ? 03:12:11 10° SSE 03:16:31 85° WSW 03:20:54 10° NNW visible
29 Jul ? 01:53:47 10° ESE 01:57:15 24° ENE 02:00:42 10° N visible
29 Jul ? 03:28:39 10° S 03:32:56 63° WSW 03:37:15 10° NNW visible
30 Jul ? 02:09:43 10° ESE 02:13:30 30° ENE 02:17:18 10° N visible
30 Jul ? 03:45:13 10° S 03:49:23 45° W 03:53:34 10° NNW visible
31 Jul ? 02:25:45 10° SE 02:29:47 40° ENE 02:33:50 10° N visible
31 Jul ? 04:01:56 10° SSW 04:05:51 33° W 04:09:49 10° NNW visible
